Hourly Data Report for October 05, 2017

All times are specified in Local Standard Time (LST). Add 1 hour to adjust for Daylight Saving Time where and when it is observed.

TADOULE LAKE
MANITOBA

58°42'22.000" N
98°30'44.000" W
281.30 m
5062835
71272
YBQ

Download Data

Hourly Data (October 2017)
Hourly Data Report for October 5, 2017
Temp Definition
°C
Dew Point Temp Definition
°C
Rel Hum Definition
%
Wind Dir Definition
10's deg

Wind Spd Definition
km/h
Visibility Definition
km
Stn Press Definition
kPa
Hmdx Definition


Wind Chill Definition


Weather Definition


TIME
00:00 Legend Double Dagger -0.2 -5.0 70 30 15 16.1 97.91   -5 LegendNANA
01:00 Legend Double Dagger -0.3 -5.3 69 31 18 16.1 97.88   -5 LegendNANA
02:00 Legend Double Dagger -0.4 -5.2 70 30 18 16.1 97.82   -5 LegendNANA
03:00 Legend Double Dagger -0.3 -5.2 70 30 21 16.1 97.78   -6 LegendNANA
04:00 Legend Double Dagger -0.2 -5.1 70 30 21 16.1 97.78   -6 LegendNANA
05:00 Legend Double Dagger -0.4 -5.2 70 30 18 16.1 97.75   -5 LegendNANA
06:00 Legend Double Dagger -0.7 -5.3 71 30 21 16.1 97.70   -6 LegendNANA
07:00 Legend Double Dagger -0.9 -5.2 73 31 15 16.1 97.67   -6 LegendNANA
08:00 Legend Double Dagger -0.7 -4.8 74 30 17 16.1 97.62   -6 LegendNANA
09:00 Legend Double Dagger -0.4 -4.7 73 30 28 16.1 97.62   -7 LegendNANA
10:00 Legend Double Dagger 0.1 -4.6 71 32 18 16.1 97.59     LegendNANA
11:00 Legend Double Dagger 1.6 -4.5 64 30 15 16.1 97.57     LegendNANA
12:00 Legend Double Dagger 1.2 -4.6 65 29 9 16.1 97.55     LegendNANA
13:00 Legend Double Dagger 2.5 -4.5 60 31 18 16.1 97.52     LegendNANA
14:00 Legend Double Dagger 4.1 -4.0 56 30 18 16.1 97.49     LegendNANA
15:00 Legend Double Dagger 3.9 -5.0 53 30 18 16.1 97.44     LegendNANA
16:00 Legend Double Dagger 4.0 -4.9 52 31 17 16.1 97.40     LegendNANA
17:00 Legend Double Dagger 3.6 -5.2 53 30 11 16.1 97.35     LegendNANA
18:00 Legend Double Dagger 1.8 -5.2 60 28 5 16.1 97.30     LegendNANA
19:00 Legend Double Dagger -0.2 -5.2 69 26 5 16.1 97.26   -2 LegendNANA
20:00 Legend Double Dagger -0.2 -4.7 72 28 5 16.1 97.24   -2 LegendNANA
21:00 Legend Double Dagger -0.5 -5.1 71 28 8 16.1 97.16   -3 LegendNANA
22:00 Legend Double Dagger -1.6 -5.2 77 30 8 16.1 97.12   -5 LegendNANA
23:00 Legend Double Dagger -2.7 -5.1 84 32 5 16.1 97.06   -5 LegendNANA

Notes on Data Quality.

Legend

  • E = Estimated
  • M = Missing
  • NA = Not Available
  • ‡ = Partner data that is not subject to review by the National Climate Archives
Date modified: